[[{"header":{"parameterUnit":"m.s-1","parameterCategory":1,"la1":30.2991,"la2":30.254,"lo1":-89.0895,"lo2":-89.0444,"dy":0.0017,"dx":0.0017,"nx":28,"ny":28,"refTime":"2024-03-11T21:00:00:Z","depth":0,"parameterNumber":2,"parameterNumberName":"U-component_of_WINDS"},"data":[0,0,0,0,0,0,0,0,0,0,0,0,0,0,0,0,0,0,0,0,0,0,0,0,0,0,0,0,0,0,0,0,0,0,0,0,0,0,0,0,0,0,0,0,0,0,0,0,0,0,0,0,0,0,0,0,0,0,-1.7781,-1.7781,0,-1.7759,-1.7759,-1.7758,-1.7691,-1.769,-1.7688,-1.7687,-1.7666,-1.7667,-1.7667,0,0,0,0,0,0,0,0,0,0,0,0,0,-1.7768,-1.7769,-1.7781,-1.7781,-1.7781,-1.7759,-1.7759,-1.7758,-1.7692,-1.769,-1.7688,-1.7686,-1.7665,-1.7666,-1.7667,0,0,0,0,0,0,0,0,0,0,0,0,0,-1.7763,-1.7769,-1.7781,-1.7745,-1.7741,-1.7759,-1.7759,-1.7758,-1.7692,-1.769,-1.7688,-1.7686,-1.7665,-1.7666,-1.7668,-1.7719,0,0,-1.7671,-1.7672,0,0,0,0,0,0,0,0,-1.7763,-1.7763,-1.775,-1.7747,-1.7743,-1.7726,-1.7746,-1.7745,-1.7693,-1.7711,-1.7687,-1.7684,-1.7688,-1.7687,-1.7687,-1.7718,-1.7717,-1.7671,-1.7672,-1.7673,-1.7673,0,0,0,0,0,0,0,-1.7763,-1.7764,-1.7772,-1.775,-1.7746,-1.773,-1.7727,-1.7746,-1.7712,-1.7709,-1.7704,-1.7702,-1.7685,-1.7687,-1.7687,-1.7717,-1.7671,-1.7672,-1.7673,-1.7674,-1.779,-1.7792,0,0,0,0,0,0,-1.7769,-1.7764,-1.7773,-1.7772,-1.7748,-1.7732,-1.7728,-1.7734,-1.7711,-1.7706,-1.7704,-1.7699,-1.7686,-1.7685,-1.7686,-1.7745,-1.7673,-1.7674,-1.7674,-1.7788,-1.7791,-1.7793,0,0,0,0,0,0,-1.7769,-1.777,-1.7774,-1.7767,-1.7766,-1.7735,-1.7741,-1.7734,-1.7735,-1.7708,-1.7702,-1.7712,-1.7684,-1.7684,-1.7711,-1.7744,-1.7674,-1.7675,-1.7785,-1.7789,-1.7792,-1.7865,0,0,0,0,0,0,-1.7769,-1.7771,-1.779,-1.7768,-1.7767,-1.78,-1.7743,-1.7735,-1.7738,-1.7731,-1.7713,-1.7708,-1.7682,-1.771,-1.7713,-1.7744,-1.7676,-1.7782,-1.7787,-1.7791,-1.786,-1.7871,-1.788,0,0,0,0,0,-1.7768,-1.7811,-1.7791,-1.7792,-1.779,-1.7802,-1.7801,-1.777,-1.774,-1.776,-1.7742,-1.7709,-1.774,-1.7713,-1.7716,-1.7748,-1.778,-1.7785,-1.779,-1.7855,-1.7868,-1.788,0,0,0,0,0,0,-1.7838,-1.7808,-1.7785,-1.7821,-1.7815,-1.7791,-1.7814,-1.7785,-1.7787,-1.7781,-1.7743,-1.7739,-1.7773,-1.7763,-1.7734,-1.7797,-1.7754,-1.776,-1.7803,-1.7815,-1.7825,-1.7827,-1.7677,0,0,0,0,0,-1.7858,-1.787,-1.7843,-1.7878,-1.7875,-1.7846,-1.785,-1.7826,-1.7818,-1.7815,-1.7799,-1.7793,-1.7801,-1.7807,-1.7813,-1.7858,-1.7853,-1.7881,-1.7891,-1.79,-1.7906,-1.7929,-1.7942,-1.7811,-1.7811,-1.7811,0,0,-1.7898,-1.7883,-1.7893,-1.7891,-1.7883,-1.7898,-1.7844,-1.786,-1.7871,-1.7817,-1.7843,-1.7831,-1.7822,-1.7858,-1.7873,-1.7851,-1.7941,-1.7907,-1.7914,-1.7915,-1.7936,-1.7949,-1.796,-1.7814,-1.7814,-1.7813,0,0,-1.798,-1.7969,-1.7997,-1.7991,-1.7979,-1.7959,-1.7966,-1.7946,-1.7936,-1.7961,-1.7921,-1.7933,-1.7948,-1.7943,-1.7943,-1.8023,-1.7993,-1.8026,-1.808,-1.8103,-1.8114,-1.8123,-1.8152,-1.8163,-1.8032,-1.8032,-1.8032,0,-1.8032,-1.8051,-1.8016,-1.8036,-1.8036,-1.7988,-1.8017,-1.8012,-1.8004,-1.8006,-1.7981,-1.7999,-1.7989,-1.8024,-1.8044,-1.8045,-1.8052,-1.8028,-1.8115,-1.8123,-1.8131,-1.8159,-1.817,-1.8036,-1.8036,-1.8035,-1.8035,0,-1.8116,-1.813,-1.8154,-1.8147,-1.815,-1.8175,-1.8144,-1.8152,-1.8128,-1.8111,-1.8137,-1.8124,-1.8127,-1.8133,-1.811,-1.8165,-1.8152,-1.8122,-1.8077,-1.8149,-1.8174,-1.8184,-1.8042,-1.8041,-1.804,-1.8038,0,0,-1.8241,-1.8214,-1.8223,-1.822,-1.8204,-1.8214,-1.8237,-1.8239,-1.8247,-1.8243,-1.8261,-1.8275,-1.8247,-1.8247,-1.8223,-1.8243,-1.8309,-1.821,-1.8209,-1.823,-1.837,-1.8393,-1.8406,-1.8289,-1.829,-1.8292,-1.8371,0,-1.8318,-1.8355,-1.8324,-1.8366,-1.8379,-1.8334,-1.8354,-1.8347,-1.8331,-1.8341,-1.8324,-1.8335,-1.8296,-1.8296,-1.8314,-1.8297,-1.8337,-1.8291,-1.8306,-1.8307,-1.8311,-1.8419,-1.8444,-1.8519,-1.838,-1.8382,-1.8383,0,-1.8413,-1.8414,-1.8457,-1.8439,-1.8443,-1.8462,-1.8462,-1.8471,-1.8462,-1.8449,-1.8449,-1.842,-1.8442,-1.8398,-1.8428,-1.8398,-1.8402,-1.8395,-1.8397,-1.8398,-1.835,-1.8424,-1.8542,-1.8554,-1.8398,-1.8397,-1.8396,0,-1.8501,-1.8512,-1.854,-1.8538,-1.8517,-1.8531,-1.8523,-1.8512,-1.8516,-1.8516,-1.8518,-1.8521,-1.8523,-1.8527,-1.8499,-1.847,-1.8533,-1.8487,-1.8524,-1.8525,-1.854,-1.8539,-1.8662,-1.8542,-1.8542,-1.8541,-1.8541,0,-1.8591,-1.862,-1.8579,-1.8596,-1.8627,-1.8592,-1.8624,-1.8612,-1.8602,-1.8617,-1.8578,-1.8593,-1.8555,-1.8566,-1.8545,-1.8573,-1.8574,-1.8565,-1.856,-1.8569,-1.8571,-1.8572,-1.8567,-1.8544,-1.8544,-1.8543,-1.8543,0,-1.8695,-1.8668,-1.8696,-1.8674,-1.8669,-1.8693,-1.8674,-1.869,-1.8672,-1.8691,-1.8693,-1.8665,-1.8676,-1.8649,-1.8656,-1.8642,-1.8683,-1.8668,-1.8686,-1.8682,-1.8721,-1.8718,-1.8849,-1.8865,-1.8734,-1.8735,-1.8736,0,-1.8755,-1.8776,-1.8756,-1.8763,-1.8757,-1.8768,-1.8772,-1.8738,-1.8743,-1.8735,-1.8752,-1.876,-1.8764,-1.8784,-1.8765,-1.877,-1.8756,-1.8801,-1.8756,-1.8766,-1.8757,-1.8757,-1.8759,-1.8811,-1.8812,-1.8814,-1.8815,0,-1.8864,-1.885,-1.8856,-1.8858,-1.8863,-1.8863,-1.886,-1.8868,-1.8833,-1.8841,-1.8851,-1.8855,-1.8862,-1.887,-1.8871,-1.8864,-1.8834,-1.8829,-1.8838,-1.8849,-1.8858,-1.8854,-1.8712,-1.8826,-1.8825,-1.8824,-1.8824,-1.8823,-1.8947,-1.8964,-1.8953,-1.8962,-1.8956,-1.8955,-1.8969,-1.8952,-1.896,-1.8963,-1.8943,-1.8958,-1.8949,-1.8948,-1.8944,-1.8955,-1.8935,-1.8948,-1.8951,-1.8955,-1.8962,-1.8856,-1.8955,-1.8955,-1.8955,-1.8954,-1.8954,0,-1.9055,-1.9046,-1.9054,-1.9052,-1.9059,-1.9029,-1.9025,-1.9033,-1.9047,-1.9041,-1.9046,-1.9059,-1.9067,-1.9048,-1.9054,-1.9067,-1.9053,-1.9069,-1.9069,-1.9068,-1.8979,-1.8971,-1.908,-1.908,-1.908,-1.908,-1.908,-1.908,-1.9112,-1.914,-1.9124,-1.9149,-1.9139,-1.9154,-1.9154,-1.9153,-1.9148,-1.9164,-1.917,-1.9158,-1.9147,-1.9152,-1.9158,-1.9152,-1.9157,-1.9178,-1.9168,-1.9086,-1.9074,-1.9062,-1.9054,-1.9179,-1.9179,-1.9255,-1.9256,-1.9256]},{"header":{"parameterUnit":"m.s-1","parameterCategory":1,"la1":30.2991,"la2":30.254,"lo1":-89.0895,"lo2":-89.0444,"dy":0.0017,"dx":0.0017,"nx":28,"ny":28,"refTime":"2024-03-11T21:00:00:Z","depth":0,"parameterNumber":3,"parameterNumberName":"V-component_of_WINDS"},"data":[0,0,0,0,0,0,0,0,0,0,0,0,0,0,0,0,0,0,0,0,0,0,0,0,0,0,0,0,0,0,0,0,0,0,0,0,0,0,0,0,0,0,0,0,0,0,0,0,0,0,0,0,0,0,0,0,0,0,-0.9682,-0.9683,0,-0.9747,-0.9747,-0.9748,-0.9762,-0.9762,-0.9761,-0.9761,-0.9825,-0.9827,-0.983,0,0,0,0,0,0,0,0,0,0,0,0,0,-0.9569,-0.9571,-0.9682,-0.9683,-0.9684,-0.9747,-0.9748,-0.9748,-0.9762,-0.9762,-0.9761,-0.9761,-0.9825,-0.9827,-0.983,0,0,0,0,0,0,0,0,0,0,0,0,0,-0.9624,-0.9572,-0.9682,-0.9698,-0.97,-0.9746,-0.9748,-0.9749,-0.9763,-0.9762,-0.9761,-0.976,-0.9824,-0.9827,-0.983,-0.9864,0,0,-0.984,-0.9841,0,0,0,0,0,0,0,0,-0.9621,-0.9628,-0.9695,-0.9697,-0.97,-0.9746,-0.9731,-0.9787,-0.9763,-0.9739,-0.9761,-0.976,-0.9799,-0.9804,-0.9818,-0.9867,-0.987,-0.984,-0.9842,-0.9844,-0.9844,0,0,0,0,0,0,0,-0.9617,-0.9626,-0.9708,-0.9696,-0.9699,-0.9702,-0.9709,-0.9742,-0.9772,-0.9741,-0.9742,-0.975,-0.98,-0.9815,-0.982,-0.9871,-0.984,-0.9843,-0.9845,-0.9846,-0.995,-0.9951,0,0,0,0,0,0,-0.9611,-0.9622,-0.9705,-0.9709,-0.9658,-0.9704,-0.9712,-0.9732,-0.9772,-0.9777,-0.975,-0.975,-0.981,-0.9816,-0.9822,-0.9864,-0.9844,-0.9847,-0.9848,-0.995,-0.9951,-0.9952,0,0,0,0,0,0,-0.9608,-0.9618,-0.9703,-0.9666,-0.9677,-0.9707,-0.9729,-0.9733,-0.9748,-0.9779,-0.9784,-0.976,-0.981,-0.9817,-0.9854,-0.9867,-0.9848,-0.9851,-0.9949,-0.995,-0.9951,-0.9949,0,0,0,0,0,0,-0.9605,-0.9617,-0.963,-0.9666,-0.9679,-0.9734,-0.9729,-0.9735,-0.9754,-0.9754,-0.9789,-0.9794,-0.981,-0.9849,-0.9857,-0.9871,-0.9853,-0.9948,-0.9949,-0.9951,-0.9948,-0.995,-0.9952,0,0,0,0,0,-0.9601,-0.9627,-0.9631,-0.9641,-0.9697,-0.9734,-0.9742,-0.9759,-0.9755,-0.9768,-0.9788,-0.9793,-0.9864,-0.9852,-0.9861,-0.9877,-0.9947,-0.9949,-0.9951,-0.9947,-0.995,-0.9952,0,0,0,0,0,0,-0.9591,-0.9632,-0.9637,-0.9676,-0.9702,-0.9737,-0.9754,-0.9761,-0.9789,-0.9788,-0.9808,-0.9816,-0.9851,-0.9867,-0.9853,-0.9912,-0.9905,-0.9909,-0.9899,-0.9902,-0.9904,-0.9899,-0.9856,0,0,0,0,0,-0.9593,-0.9621,-0.9655,-0.9686,-0.9699,-0.9724,-0.9741,-0.9753,-0.978,-0.9791,-0.9814,-0.984,-0.9868,-0.9886,-0.9913,-0.9951,-0.9958,-0.9966,-0.9967,-0.9969,-0.9972,-0.9993,-0.9996,-0.9958,-0.9958,-0.9958,0,0,-0.9598,-0.9624,-0.964,-0.9685,-0.9706,-0.9734,-0.9733,-0.9763,-0.9784,-0.9795,-0.9831,-0.9848,-0.9879,-0.9915,-0.9933,-0.993,-0.9984,-0.9971,-0.9972,-0.9974,-0.9995,-0.9999,-1.0002,-0.9959,-0.9959,-0.9959,0,0,-0.9622,-0.9644,-0.9672,-0.9694,-0.9727,-0.9744,-0.975,-0.9785,-0.9797,-0.9834,-0.9843,-0.9868,-0.9916,-0.9937,-0.9954,-0.9986,-0.9991,-0.9994,-1.0004,-1.0024,-1.0027,-1.003,-1.0041,-1.0045,-0.9997,-0.9997,-0.9997,0,-0.9624,-0.9666,-0.9686,-0.9715,-0.9734,-0.9747,-0.9775,-0.9795,-0.9835,-0.9848,-0.9845,-0.9906,-0.9927,-0.9969,-0.9977,-0.999,-0.9998,-0.999,-1.0025,-1.0028,-1.0031,-1.0042,-1.0046,-0.9997,-0.9997,-0.9997,-0.9997,0,-0.9667,-0.9697,-0.9715,-0.9754,-0.9776,-0.9804,-0.9827,-0.9846,-0.9856,-0.9873,-0.991,-0.9936,-0.9969,-0.998,-0.9989,-1.0023,-1.0021,-1.0021,-1.0015,-1.0035,-1.0045,-1.005,-0.9998,-0.9998,-0.9997,-0.9997,0,0,-0.9686,-0.9735,-0.9742,-0.976,-0.9797,-0.982,-0.9849,-0.9882,-0.9898,-0.9925,-0.995,-0.9991,-0.9992,-1.0011,-1.0023,-1.0041,-1.0064,-1.0039,-1.004,-1.0043,-1.0103,-1.0102,-1.0107,-1.0068,-1.0069,-1.007,-1.01,0,-0.9713,-0.9767,-0.9785,-0.9829,-0.9856,-0.9869,-0.9894,-0.992,-0.9937,-0.9962,-0.998,-1.0009,-1.0008,-1.0019,-1.0038,-1.0057,-1.0076,-1.0056,-1.0091,-1.0092,-1.0083,-1.0112,-1.0112,-1.0139,-1.0105,-1.0105,-1.0106,0,-0.9753,-0.9781,-0.9828,-0.9862,-0.9874,-0.9897,-0.9929,-0.9953,-0.9982,-0.9993,-1.0015,-1.0026,-1.0056,-1.0049,-1.0091,-1.0076,-1.0092,-1.0104,-1.0105,-1.0109,-1.01,-1.0117,-1.0149,-1.0153,-1.0113,-1.0112,-1.0112,0,-0.9761,-0.9811,-0.9846,-0.9861,-0.9902,-0.9917,-0.9935,-0.9963,-0.9982,-1.001,-1.0022,-1.0053,-1.007,-1.0093,-1.0112,-1.0104,-1.0152,-1.0146,-1.0162,-1.0161,-1.0171,-1.017,-1.0205,-1.0181,-1.0181,-1.0181,-1.0181,0,-0.979,-0.9818,-0.985,-0.9871,-0.9903,-0.9924,-0.9954,-0.9973,-0.9998,-1.0023,-1.0035,-1.0058,-1.0081,-1.0107,-1.0122,-1.0154,-1.0162,-1.0171,-1.0175,-1.017,-1.0169,-1.018,-1.0179,-1.0182,-1.0182,-1.0182,-1.0181,0,-0.9805,-0.9828,-0.9866,-0.9902,-0.9912,-0.9933,-0.9964,-0.9985,-1.0002,-1.0033,-1.0041,-1.0069,-1.01,-1.0121,-1.016,-1.017,-1.0205,-1.0209,-1.0196,-1.0197,-1.0212,-1.021,-1.0256,-1.0263,-1.0234,-1.0234,-1.0234,0,-0.9822,-0.9844,-0.9882,-0.99,-0.9918,-0.9946,-0.9966,-0.9987,-1.0007,-1.0042,-1.0058,-1.009,-1.0117,-1.0165,-1.0188,-1.0219,-1.0223,-1.0237,-1.0227,-1.0222,-1.0223,-1.0221,-1.0223,-1.0238,-1.0238,-1.0238,-1.0238,0,-0.9849,-0.986,-0.9888,-0.992,-0.9943,-0.9969,-0.9995,-1.0009,-1.0035,-1.0056,-1.0088,-1.0109,-1.015,-1.0181,-1.0214,-1.0231,-1.0239,-1.0241,-1.0246,-1.0241,-1.0233,-1.0238,-1.0199,-1.024,-1.024,-1.024,-1.024,-1.0239,-0.9866,-0.9886,-0.9916,-0.9947,-0.9969,-0.9993,-1.0015,-1.0036,-1.0063,-1.0098,-1.0109,-1.0142,-1.0171,-1.0215,-1.0233,-1.0259,-1.0258,-1.0266,-1.0268,-1.0269,-1.0269,-1.0229,-1.0265,-1.0265,-1.0265,-1.0265,-1.0265,0,-0.9893,-0.9914,-0.9942,-0.9979,-1.0003,-1.0009,-1.0039,-1.0058,-1.0088,-1.0114,-1.014,-1.0177,-1.0208,-1.0234,-1.0265,-1.0281,-1.0285,-1.0288,-1.0287,-1.0291,-1.0268,-1.0261,-1.0284,-1.0284,-1.0284,-1.0284,-1.0284,-1.0284,-0.9911,-0.9945,-0.9959,-1.0005,-1.0025,-1.0058,-1.0074,-1.0097,-1.0118,-1.0159,-1.0185,-1.0202,-1.0228,-1.0261,-1.029,-1.0296,-1.0307,-1.0309,-1.0317,-1.0295,-1.0293,-1.0291,-1.0283,-1.0312,-1.0312,-1.0338,-1.0338,-1.0338]}]]